Regional Weather Roundup
Issued by NWS

Home | Current Version | Previous Version | Graphics & Text | Print | Product List | Glossary On
Versions: 1 2 3 4 5 6 7 8 9 10 11 12 13 14 15 16 17 18 19 20 21 22 23 24 25 26 27 28 29 30 31 32 33 34 35 36 37 38 39 40 41 42 43 44 45 46 47 48 49 50
000
ASUS43 KDMX 300607
RWRIA

WEATHER ROUNDUP FOR IOWA
NATIONAL WEATHER SERVICE DES MOINES IA
100 AM CDT SUN AUG 30 2015

NOTE: "FAIR" INDICATES FEW OR NO CLOUDS BELOW 12,000 FEET WITH NO
SIGNIFICANT WEATHER AND/OR OBSTRUCTIONS TO VISIBILITY.

* - THESE STATIONS ARE NOT NWS STATIONS...THUS NOT UNDER NWS
QUALITY CONTROL.  THEY ALSO DO NOT REPORT WEATHER SUCH
AS PRECIPITATION OR FOG.

IAZ001>003-012>014-020>022-031>034-043>046-300700-
   NORTHWEST IOWA

CITY           SKY/WX    TMP DP  RH WIND       PRES   REMARKS
CARROLL *      CLOUDY    61  61 100 CALM      30.05S
CHEROKEE *     CLOUDY    62  62 100 S9        30.04F
DENISON *      CLOUDY    64  63  94 S6G13     30.04S
LE MARS *      CLOUDY    64  63  94 S9G16     30.03F
ORANGE CITY *  CLOUDY    63  63 100 S10G17    30.03S FOG
SHELDON *      CLOUDY    63  63 100 S10       30.02S
SPENCER        FOG       62  60  93 S12       30.04S VSB 3/4
6HR MIN TEMP:  61; 6HR MAX TEMP:  71;

STORM LAKE *   CLOUDY    63  61  94 S9        30.06S
$$

IAZ055>058-069>071-079>083-090>094-300700-
   SOUTHWEST IOWA

CITY           SKY/WX    TMP DP  RH WIND       PRES   REMARKS
ATLANTIC *     CLOUDY    61  61 100 CALM      30.05S
AUDUBON *      CLEAR     61  57  88 CALM      30.06S
CLARINDA *     MOCLDY    61  61 100 CALM      30.07S
COUNCIL BLFS * CLOUDY    66  64  94 S3        30.06S
CRESTON *      FOG       59  59 100 SE5       30.07S VSB 0
HARLAN  *      CLOUDY    64  46  52 S5        30.09S
LAMONI         FOG       63  62  97 CALM      30.06S VSB 1/4
6HR MIN TEMP:  62; 6HR MAX TEMP:  73;

RED OAK *      MOCLDY    64  64 100 CALM      30.06S
SHENANDOAH *   FOG       61  61 100 NE5       30.06S VSB 3/4
$$

IAZ047>049-059>061-072>074-084-300700-
   CENTRAL IOWA

CITY           SKY/WX    TMP DP  RH WIND       PRES   REMARKS
AMES           MOCLDY    63  61  93 CALM      30.05S
6HR MIN TEMP:  63; 6HR MAX TEMP:  70;

ANKENY *       FOG       59  59 100 CALM      30.05R VSB 1/4
CHARITON *     CLOUDY    63  63 100 E5        30.05S FOG
DES MOINES       N/A     65  62  90 SE3       30.05R
6HR MIN TEMP:  64; 6HR MAX TEMP:  71;

GRINNELL*      FOG       59  57  94 CALM      30.06S VSB 1
KNOXVILLE *    CLOUDY    64  63  94 CALM      30.04S
MARSHALLTOWN     N/A     59  59 100 CALM      30.05R FOG
6HR MIN TEMP:  60; 6HR MAX TEMP:  70;

PELLA *        FOG       60  60 100 CALM      30.06S VSB 1/2
PERRY *          N/A     61  61 100 S3        30.05S FOG
$$

IAZ004>006-015-016-023>025-035-036-300700-
   NORTH CENTRAL IOWA

CITY           SKY/WX    TMP DP  RH WIND       PRES   REMARKS
ALGONA *       CLOUDY    59  59 100 SW5       30.05F
CLARION *      FOG       59  59 100 CALM      30.05F VSB 1/4
ESTHERVILLE    CLOUDY    60  60 100 S10       30.03F
6HR MIN TEMP:  58; 6HR MAX TEMP:  63;

FORT DODGE *   CLOUDY    63  59  88 CALM      30.06F
MASON CITY       N/A     60  60 100 S7        30.06F
6HR MIN TEMP:  59; 6HR MAX TEMP:  71;

FOREST CITY *  FOG       55  55 100 CALM      30.05S VSB 1/2
IOWA FALLS *   MOCLDY    64  63  94 CALM      30.07S
$$

IAZ007>011-017>019-026>030-037>042-050>054-066-300700-
   NORTHEAST IOWA

CITY           SKY/WX    TMP DP  RH WIND       PRES   REMARKS
CEDAR RAPIDS   FOG       59  59 100 CALM      30.04S VSB 1/2
6HR MIN TEMP:  58; 6HR MAX TEMP:  69;

CHARLES CITY * PTCLDY    61  61 100 S5        30.06F FOG
CLINTON *        N/A     64  63  94 NE6       30.06S
DECORAH *      CLOUDY    63  61  94 S5        30.06S
DUBUQUE          N/A     62  61  96 NE3       30.06S
6HR MIN TEMP:  63; 6HR MAX TEMP:  70;

MONTICELLO *   FOG       59  57  94 CALM      30.05S VSB 1/4
OELWEIN *      CLEAR     59  59 100 NE5       30.07S
WATERLOO         N/A     59  57  93 CALM      30.05R
6HR MIN TEMP:  58; 6HR MAX TEMP:  71;

$$

IAZ064-065-067-068-078-300700-
   EAST CENTRAL IOWA

CITY           SKY/WX    TMP DP  RH WIND       PRES   REMARKS
DAVENPORT      FOG       60  59  96 CALM      30.05R VSB 1/4
6HR MIN TEMP:  60; 6HR MAX TEMP:  70;

IOWA CITY      FOG       61  61 100 CALM      30.05S VSB 1/4
6HR MIN TEMP:  61; 6HR MAX TEMP:  74;

MT. PLEASANT * FOG       65  62  90 CALM      30.04S VSB<1/4
MUSCATINE *    FOG       63  63 100 CALM      30.04S VSB 0
QUAD CITIES    FOG       63  61  93 CALM      30.04R VSB 1/4
6HR MIN TEMP:  61; 6HR MAX TEMP:  72;

$$

IAZ062-063-075>077-085>089-095>099-300700-
   SOUTHEAST IOWA

CITY           SKY/WX    TMP DP  RH WIND       PRES   REMARKS
BURLINGTON     CLOUDY    68  68 100 CALM      30.03S FOG
6HR MIN TEMP:  66; 6HR MAX TEMP:  77;

FAIRFIELD *    CLOUDY    63  61  94 CALM      30.04S FOG
FORT MADISON * FOG       64  64 100 CALM      30.04S VSB 0
KEOKUK *       CLEAR     70  68  94 N5        30.02S FOG
OSKALOOSA *    FOG       60  59  97 CALM      30.05S VSB 1/2
CENTERVILLE *  FOG       61  61 100 NW3       30.06S VSB 1/2
OTTUMWA        CLOUDY    65  65 100 NE6       30.03S
6HR MIN TEMP:  60; 6HR MAX TEMP:  72;

WASHINGTON *     N/A    N/A N/A N/A MISG        N/A
$$

ABBREVIATIONS USED IN REMARKS
   TC - TEMPERATURES IN CELSIUS
  WCI - WIND CHILL INDEX
   HX - HEAT INDEX
  VSB - VISIBILITY
$$



USA.gov is the U.S. government's official web portal to all federal, state and local government web resources and services.